North Platte, NE

2:36 AM CDT on April 22, 2018 (GMT -0500)
North Platte Regional-Bird

Weather History for KLBF - August, 2014

Change the Weather History Date:

Monday, August 11, 2014

  Actual Average Record
Temperature  
Mean Temperature 69 °F 73 °F  
Max Temperature 81 °F 87 °F 108 °F (1936)
Min Temperature 56 °F 60 °F 39 °F (1977)
Degree Days  
Heating Degree Days 0 0  
Month to date heating degree days 0 0  
Since 1 June heating degree days 56 56  
Since 1 July heating degree days 17 5  
Cooling Degree Days 4 8  
Month to date cooling degree days 102 99  
Year to date cooling degree days 517 558  
Since 1 June cooling degree days 468 530  
Growing Degree Days 18 (Base 50)    
Moisture  
Dew Point 57 °F    
Average Humidity 70    
Maximum Humidity 100    
Minimum Humidity 39    
Precipitation  
Precipitation 0.00 in 0.09 in 3.76 in (1950)
Month to date precipitation 2.51 1.04  
Year to date precipitation 15.69 14.97  
Snow  
Snow 0.00 in 0.00 in 0.00 in (2002)
Month to date snowfall 0.0 0.0  
Since 1 June snowfall T 0.0  
Since 1 July snowfall 0.0 0.0  
Snow Depth 0.00 in    
Sea Level Pressure  
Sea Level Pressure 30.20 in    
Wind  
Wind Speed 4 mph (NNE)    
Max Wind Speed 12 mph    
Max Gust Speed 18 mph    
Visibility 9 miles    
Events      
T = Trace of Precipitation, MM = Missing Value Source: NWS Daily Summary

Daily Weather History Graph

Daily Weather History Graph

Search for Another Location

Airport or City:

Astronomy

Aug. 11, 2014 Rise Set
Actual Time 6:48 AM CDT 8:46 PM CDT
Civil Twilight 6:18 AM CDT 9:16 PM CDT
Nautical Twilight 5:41 AM CDT 9:53 PM CDT
Astronomical Twilight 5:01 AM CDT 10:32 PM CDT
Moon 9:14 PM CDT (8/11) 7:56 AM CDT (8/11)
Length of Visible Light 14h 58m
Length of Day
13h 58m
Full, 99% of the Moon is Illuminated
Aug 11
Full
Aug 17
Last Quarter
Aug 25
New
Sep 2
First Quarter
Sep 8
Full

Hourly Weather History & Observations

Time (CDT) Temp. Heat Index Dew Point Humidity Pressure Visibility Wind Dir Wind Speed Gust Speed Precip Events Conditions
12:53 AM 62.1 °F - 60.1 °F 93% 30.18 in 10.0 mi Calm Calm - N/A   Clear
1:53 AM 61.0 °F - 59.0 °F 93% 30.19 in 10.0 mi Calm Calm - N/A   Clear
2:53 AM 59.0 °F - 57.0 °F 93% 30.19 in 8.0 mi NNW 5.8 mph - N/A   Clear
3:53 AM 57.9 °F - 57.0 °F 97% 30.19 in 7.0 mi NW 3.5 mph - N/A   Clear
4:53 AM 57.0 °F - 55.9 °F 96% 30.20 in 8.0 mi Calm Calm - N/A   Clear
5:53 AM 57.0 °F - 55.9 °F 96% 30.19 in 5.0 mi Calm Calm - N/A   Clear
6:07 AM 57.0 °F - 55.0 °F 93% 30.25 in 1.8 mi Calm Calm - N/A   Clear
6:17 AM 57.0 °F - 55.0 °F 93% 30.25 in 3.0 mi WNW 3.5 mph - N/A   Clear
6:53 AM 57.0 °F - 55.0 °F 93% 30.20 in 7.0 mi West 4.6 mph - N/A   Clear
7:53 AM 62.1 °F - 57.0 °F 84% 30.21 in 10.0 mi Calm Calm - N/A   Clear
8:53 AM 64.9 °F - 59.0 °F 81% 30.23 in 10.0 mi NNE 6.9 mph - N/A   Clear
9:53 AM 68.0 °F - 60.1 °F 76% 30.24 in 10.0 mi ENE 4.6 mph - N/A   Clear
10:53 AM 71.1 °F - 60.1 °F 68% 30.24 in 10.0 mi Calm Calm - N/A   Scattered Clouds
11:12 AM 72.0 °F - 60.1 °F 66% 30.30 in 10.0 mi Calm Calm - N/A   Mostly Cloudy
11:19 AM 72.0 °F - 59.0 °F 64% 30.30 in 10.0 mi Variable 4.6 mph - N/A   Scattered Clouds
11:53 AM 75.0 °F - 57.9 °F 55% 30.25 in 10.0 mi North 8.1 mph - N/A   Mostly Cloudy
12:53 PM 77.0 °F - 59.0 °F 54% 30.22 in 10.0 mi NNW 4.6 mph - N/A   Partly Cloudy
1:53 PM 78.1 °F - 55.9 °F 46% 30.22 in 10.0 mi NNE 9.2 mph - N/A   Clear
2:53 PM 79.0 °F - 53.1 °F 40% 30.20 in 10.0 mi Calm Calm - N/A   Clear
3:53 PM 81.0 °F 80.4 °F 53.1 °F 38% 30.18 in 10.0 mi North - - N/A   Clear
4:53 PM 81.0 °F 80.4 °F 53.1 °F 38% 30.17 in 10.0 mi East 5.8 mph - N/A   Clear
5:53 PM 80.1 °F 79.9 °F 53.1 °F 39% 30.15 in 10.0 mi NNE 4.6 mph 16.1 mph N/A   Clear
6:53 PM 79.0 °F - 54.0 °F 42% 30.15 in 10.0 mi NE 8.1 mph - N/A   Clear
7:53 PM 75.0 °F - 54.0 °F 48% 30.13 in 10.0 mi NE 5.8 mph - N/A   Clear
8:53 PM 66.9 °F - 57.0 °F 70% 30.15 in 10.0 mi ESE 5.8 mph - N/A   Clear
9:53 PM 63.0 °F - 57.0 °F 81% 30.17 in 10.0 mi East 4.6 mph - N/A   Clear
10:53 PM 63.0 °F - 54.0 °F 72% 30.18 in 10.0 mi East 5.8 mph - N/A   Clear
11:53 PM 62.1 °F - 54.0 °F 75% 30.18 in 10.0 mi South 5.8 mph - N/A   Clear